This is the latest recevied weather packets stored in our database for station/object WX7FGZ-6. If no packets are shown the sender has not sent any weather packets the latest 10 day(s).
| Time | Temp. | Humidity | Pressure | Rain* | Wind** | Luminosity | Snow |
|---|---|---|---|---|---|---|---|
| 1777857144 | 6.11° C | 45% | 1019 hPa | 0 mm | - | - | - |
| 1777857097 | 6.67° C | 45% | 1019.2 hPa | 0 mm | - | - | - |
| 1777856844 | 6.67° C | 45% | 1019.2 hPa | 0 mm | - | - | - |
| 1777856545 | 6.67° C | 45% | 1019.2 hPa | 0 mm | - | - | - |
| 1777856245 | 6.67° C | 45% | 1019.2 hPa | 0 mm | - | - | - |
| 1777855945 | 6.67° C | 42% | 1019.3 hPa | 0 mm | - | - | - |
| 1777855645 | 7.78° C | 40% | 1019.3 hPa | 0 mm | - | - | - |
| 1777855345 | 7.78° C | 41% | 1019.6 hPa | 0 mm | - | - | - |
| 1777855045 | 8.33° C | 41% | 1019.8 hPa | 0 mm | - | - | - |
| 1777854744 | 8.33° C | 39% | 1019.7 hPa | 0 mm | - | - | - |
| 1777854445 | 8.89° C | 39% | 1019.8 hPa | 0 mm | - | - | - |
| 1777854144 | 8.89° C | 39% | 1019.8 hPa | 0 mm | - | - | - |
| 1777853844 | 8.89° C | 39% | 1019.6 hPa | 0 mm | - | - | - |
| 1777853756 | 8.89° C | 37% | 1019.8 hPa | 0 mm | - | - | - |
| 1777853504 | 8.89° C | 37% | 1019.8 hPa | 0 mm | - | - | - |
| 1777853204 | 9.44° C | 40% | 1019.7 hPa | 0 mm | - | - | - |
| 1777852904 | 8.89° C | 40% | 1019.8 hPa | 0 mm | - | - | - |
| 1777852605 | 10° C | 39% | 1019.7 hPa | 0 mm | - | - | - |
| 1777852305 | 9.44° C | 40% | 1019.8 hPa | 0 mm | - | - | - |
| 1777852005 | 10° C | 37% | 1019.9 hPa | 0 mm | - | - | - |
| 1777850505 | 10° C | 37% | 1019.8 hPa | 0 mm | - | - | - |
| 1777850204 | 10° C | 35% | 1020.2 hPa | 0 mm | - | - | - |
| 1777849904 | 10° C | 36% | 1020.3 hPa | 0 mm | - | - | - |
| 1777849604 | 9.44° C | 39% | 1019.9 hPa | 0 mm | - | - | - |
| 1777849304 | 8.89° C | 41% | 1020.1 hPa | 0 mm | - | - | - |
* Rain latest hour (hover to see other rain measurements)
** Current wind speed in m/s (hover to see current wind gust speed)